This is the latest recevied weather packets stored in our database for station/object W4OTS. If no packets are shown the sender has not sent any weather packets the latest 10 day(s).
| Time | Temp. | Humidity | Pressure | Rain* | Wind** | Luminosity | Snow |
|---|---|---|---|---|---|---|---|
| 1777939704 | 21.11° C | 46% | 1015.8 hPa | 0 mm | - | 0 W/m² | - |
| 1777939401 | 21.11° C | 45% | 1015.9 hPa | 0 mm | - | 2 W/m² | - |
| 1777939098 | 21.11° C | 44% | 1015.9 hPa | 0 mm | - | 4 W/m² | - |
| 1777938795 | 21.67° C | 44% | 1015.8 hPa | 0 mm | - | 5 W/m² | - |
| 1777938491 | 21.67° C | 44% | 1015.9 hPa | 0 mm | - | 7 W/m² | - |
| 1777938189 | 21.67° C | 43% | 1015.7 hPa | 0 mm | - | 9 W/m² | - |
| 1777937885 | 22.22° C | 43% | 1015.7 hPa | 0 mm | - | 11 W/m² | - |
| 1777937581 | 22.22° C | 43% | 1015.4 hPa | 0 mm | - | 14 W/m² | - |
| 1777937278 | 22.22° C | 42% | 1015.7 hPa | 0 mm | - | 16 W/m² | - |
| 1777936975 | 22.22° C | 43% | 1015.5 hPa | 0 mm | - | 19 W/m² | - |
| 1777936672 | 22.78° C | 41% | 1015.8 hPa | 0 mm | - | 19 W/m² | - |
| 1777936368 | 22.78° C | 42% | 1015.6 hPa | 0 mm | - | 21 W/m² | - |
| 1777936064 | 22.78° C | 41% | 1015.4 hPa | 0 mm | - | 23 W/m² | - |
| 1777935763 | 22.78° C | 41% | 1015.5 hPa | 0 mm | - | 27 W/m² | - |
| 1777935461 | 22.78° C | 41% | 1015.4 hPa | 0 mm | - | 28 W/m² | - |
| 1777935157 | 22.78° C | 40% | 1015.4 hPa | 0 mm | - | 29 W/m² | - |
| 1777934855 | 22.78° C | 40% | 1015.2 hPa | 0 mm | - | 28 W/m² | - |
| 1777934552 | 23.33° C | 40% | 1015.3 hPa | 0 mm | - | 29 W/m² | - |
| 1777934248 | 23.33° C | 41% | 1015.4 hPa | 0 mm | - | 31 W/m² | - |
| 1777933943 | 23.33° C | 40% | 1015.6 hPa | 0 mm | - | 32 W/m² | - |
| 1777933641 | 23.33° C | 40% | 1015.5 hPa | 0 mm | - | 32 W/m² | - |
| 1777933338 | 23.33° C | 40% | 1015.2 hPa | 0 mm | - | 34 W/m² | - |
| 1777933035 | 23.33° C | 40% | 1015.3 hPa | 0 mm | - | 36 W/m² | - |
| 1777932732 | 23.33° C | 40% | 1015.5 hPa | 0 mm | - | 35 W/m² | - |
| 1777932428 | 23.33° C | 39% | 1015.4 hPa | 0 mm | - | 32 W/m² | - |
* Rain latest hour (hover to see other rain measurements)
** Current wind speed in m/s (hover to see current wind gust speed)